When you browse on this site, cookies collect data to enhance your experience and personalize the content and advertising you see.
Visit our Privacy Policy to learn more. By continuing to use the site, you agree to this use of cookies and data.

Meteo pe oră la Dziarnowo

Astăzi, 25 Septembrie, Vineri

Timp Temperatura Precipitaţii Vânt Presiune Umiditate
00:00 +18°C° 0 mm 1 m/s 746 mmHg 77%
01:00 +18°C° 0 mm 1 m/s 746 mmHg 78%
02:00 +17°C° 0 mm 2 m/s 745 mmHg 79%
03:00 +16°C° 0 mm 2 m/s 745 mmHg 80%
04:00 +16°C° 0 mm 3 m/s 744 mmHg 81%
05:00 +16°C° 0 mm 3 m/s 744 mmHg 80%
06:00 +17°C° 0 mm 4 m/s 743 mmHg 79%
07:00 +16°C° 0 mm 5 m/s 743 mmHg 78%
08:00 +19°C° 0 mm 5 m/s 742 mmHg 70%
09:00 +21°C° 0 mm 6 m/s 742 mmHg 62%
10:00 +23°C° 0 mm 7 m/s 741 mmHg 54%
11:00 +24°C° 0 mm 7 m/s 741 mmHg 52%
12:00 +24°C° 0 mm 7 m/s 740 mmHg 50%
13:00 +26°C° 0 mm 7 m/s 740 mmHg 48%
14:00 +23°C° 1 mm 7 m/s 739 mmHg 58%
15:00 +21°C° 1 mm 6 m/s 739 mmHg 69%
16:00 +19°C° 1 mm 5 m/s 739 mmHg 79%
17:00 +17°C° 1.9 mm 5 m/s 739 mmHg 82%
18:00 +17°C° 1.9 mm 4 m/s 739 mmHg 85%
19:00 +16°C° 1.9 mm 3 m/s 739 mmHg 88%
20:00 +16°C° 0 mm 3 m/s 740 mmHg 89%
21:00 +15°C° 0 mm 2 m/s 740 mmHg 91%
22:00 +14°C° 0 mm 1 m/s 740 mmHg 93%
23:00 +14°C° 0 mm 1 m/s 740 mmHg 93%

Mâine, 26 Septembrie, Sâmbătă

Timp Temperatura Precipitaţii Vânt Presiune Umiditate
00:00 +14°C° 0 mm 1 m/s 740 mmHg 94%
01:00 +13°C° 0 mm 1 m/s 740 mmHg 94%
02:00 +13°C° 0 mm 3 m/s 739 mmHg 93%
03:00 +13°C° 0 mm 4 m/s 739 mmHg 92%
04:00 +13°C° 0 mm 5 m/s 738 mmHg 91%
05:00 +14°C° 0 mm 5 m/s 738 mmHg 90%
06:00 +15°C° 0 mm 6 m/s 737 mmHg 90%
07:00 +16°C° 0 mm 6 m/s 736 mmHg 90%
08:00 +16°C° 0.1 mm 6 m/s 736 mmHg 87%
09:00 +17°C° 0.1 mm 6 m/s 736 mmHg 84%
10:00 +17°C° 0.1 mm 6 m/s 736 mmHg 82%
11:00 +17°C° 0.2 mm 6 m/s 736 mmHg 81%
12:00 +19°C° 0.2 mm 6 m/s 737 mmHg 80%
13:00 +19°C° 0.2 mm 6 m/s 737 mmHg 79%
14:00 +17°C° 0.5 mm 5 m/s 737 mmHg 81%
15:00 +15°C° 0.5 mm 4 m/s 738 mmHg 83%
16:00 +14°C° 0.5 mm 3 m/s 738 mmHg 85%
17:00 +13°C° 0.3 mm 3 m/s 739 mmHg 85%
18:00 +14°C° 0.3 mm 2 m/s 739 mmHg 85%
19:00 +14°C° 0.3 mm 2 m/s 740 mmHg 85%
20:00 +13°C° 0 mm 2 m/s 741 mmHg 83%
21:00 +13°C° 0 mm 2 m/s 741 mmHg 80%
22:00 +12°C° 0 mm 2 m/s 741 mmHg 78%
23:00 +12°C° 0.1 mm 2 m/s 741 mmHg 79%

Poimâine, 27 Septembrie, Duminică

Timp Temperatura Precipitaţii Vânt Presiune Umiditate
00:00 +12°C° 0.1 mm 2 m/s 741 mmHg 79%
01:00 +10°C° 0.1 mm 2 m/s 741 mmHg 80%
02:00 +10°C° 1.9 mm 3 m/s 741 mmHg 84%
03:00 +10°C° 1.9 mm 4 m/s 741 mmHg 89%
04:00 +9°C° 1.9 mm 5 m/s 741 mmHg 93%
05:00 +8°C° 1.5 mm 5 m/s 741 mmHg 93%
06:00 +8°C° 1.5 mm 5 m/s 741 mmHg 93%
07:00 +8°C° 1.5 mm 4 m/s 741 mmHg 93%
08:00 +8°C° 0.9 mm 5 m/s 741 mmHg 92%
09:00 +8°C° 0.9 mm 5 m/s 741 mmHg 91%
10:00 +8°C° 0.9 mm 6 m/s 741 mmHg 91%
11:00 +8°C° 1.6 mm 6 m/s 741 mmHg 90%
12:00 +8°C° 1.6 mm 6 m/s 742 mmHg 90%
13:00 +8°C° 1.6 mm 6 m/s 742 mmHg 90%
14:00 +8°C° 1 mm 6 m/s 742 mmHg 90%
15:00 +8°C° 1 mm 6 m/s 742 mmHg 90%
16:00 +8°C° 1 mm 6 m/s 743 mmHg 90%
17:00 +8°C° 0.6 mm 5 m/s 743 mmHg 90%
18:00 +8°C° 0.6 mm 5 m/s 744 mmHg 90%
19:00 +8°C° 0.6 mm 4 m/s 744 mmHg 90%
20:00 +8°C° 0.2 mm 4 m/s 745 mmHg 89%
21:00 +10°C° 0.2 mm 4 m/s 745 mmHg 87%
22:00 +10°C° 0.2 mm 4 m/s 746 mmHg 86%
23:00 +10°C° 0 mm 4 m/s 746 mmHg 85%

28 Septembrie, Luni

Timp Temperatura Precipitaţii Vânt Presiune Umiditate
00:00 +10°C° 0 mm 4 m/s 747 mmHg 84%
01:00 +10°C° 0 mm 4 m/s 747 mmHg 83%
02:00 +8°C° 0 mm 4 m/s 747 mmHg 83%
03:00 +8°C° 0 mm 4 m/s 748 mmHg 84%
04:00 +8°C° 0 mm 4 m/s 748 mmHg 84%
05:00 +8°C° 0 mm 4 m/s 748 mmHg 83%
06:00 +8°C° 0 mm 4 m/s 749 mmHg 82%
07:00 +8°C° 0 mm 4 m/s 749 mmHg 81%
08:00 +10°C° 0 mm 4 m/s 749 mmHg 75%
09:00 +12°C° 0 mm 5 m/s 749 mmHg 70%
10:00 +14°C° 0 mm 5 m/s 749 mmHg 64%
11:00 +15°C° 0 mm 5 m/s 749 mmHg 59%
12:00 +16°C° 0 mm 5 m/s 749 mmHg 55%
13:00 +17°C° 0 mm 6 m/s 750 mmHg 51%
14:00 +17°C° 0 mm 5 m/s 749 mmHg 53%
15:00 +17°C° 0 mm 4 m/s 749 mmHg 55%
16:00 +17°C° 0 mm 4 m/s 749 mmHg 57%
17:00 +15°C° 0 mm 4 m/s 749 mmHg 60%
18:00 +14°C° 0 mm 4 m/s 749 mmHg 62%
19:00 +13°C° 0 mm 4 m/s 750 mmHg 65%
20:00 +12°C° 0 mm 4 m/s 749 mmHg 68%
21:00 +12°C° 0 mm 3 m/s 749 mmHg 72%
22:00 +11°C° 0 mm 3 m/s 749 mmHg 75%
23:00 +11°C° 0 mm 3 m/s 749 mmHg 77%

29 Septembrie, Marţi

Timp Temperatura Precipitaţii Vânt Presiune Umiditate
00:00 +10°C° 0 mm 3 m/s 749 mmHg 78%
01:00 +10°C° 0 mm 2 m/s 749 mmHg 80%
02:00 +10°C° 0 mm 2 m/s 749 mmHg 81%
03:00 +10°C° 0 mm 2 m/s 749 mmHg 83%
04:00 +10°C° 0 mm 1 m/s 749 mmHg 85%
05:00 +9°C° 0 mm 2 m/s 749 mmHg 86%
06:00 +9°C° 0 mm 2 m/s 750 mmHg 87%
07:00 +9°C° 0 mm 2 m/s 750 mmHg 89%
08:00 +12°C° 0 mm 2 m/s 751 mmHg 82%
09:00 +13°C° 0 mm 3 m/s 751 mmHg 76%
10:00 +14°C° 0 mm 3 m/s 751 mmHg 69%
11:00 +16°C° 0 mm 3 m/s 751 mmHg 64%
12:00 +17°C° 0 mm 3 m/s 752 mmHg 60%
13:00 +18°C° 0 mm 3 m/s 752 mmHg 55%
14:00 +18°C° 0 mm 3 m/s 752 mmHg 56%
15:00 +18°C° 0 mm 3 m/s 752 mmHg 57%
16:00 +17°C° 0 mm 2 m/s 753 mmHg 59%
17:00 +16°C° 0 mm 2 m/s 753 mmHg 64%
18:00 +15°C° 0 mm 2 m/s 753 mmHg 68%
19:00 +13°C° 0 mm 2 m/s 754 mmHg 73%
20:00 +13°C° 0 mm 2 m/s 754 mmHg 77%
21:00 +12°C° 0 mm 2 m/s 754 mmHg 80%
22:00 +12°C° 0 mm 1 m/s 754 mmHg 84%
23:00 +12°C° 0 mm 1 m/s 754 mmHg 86%

30 Septembrie, Miercuri

Timp Temperatura Precipitaţii Vânt Presiune Umiditate
00:00 +11°C° 0 mm 1 m/s 754 mmHg 88%
01:00 +11°C° 0 mm 1 m/s 754 mmHg 89%
02:00 +11°C° 0 mm 1 m/s 754 mmHg 90%
03:00 +10°C° 0 mm 1 m/s 754 mmHg 91%
04:00 +10°C° 0 mm 1 m/s 754 mmHg 91%
05:00 +10°C° 0 mm 0 m/s 754 mmHg 90%
06:00 +10°C° 0 mm 0 m/s 754 mmHg 89%
07:00 +10°C° 0 mm 0 m/s 754 mmHg 88%
08:00 +12°C° 0 mm 0 m/s 754 mmHg 81%
09:00 +14°C° 0 mm 0 m/s 754 mmHg 74%
10:00 +16°C° 0 mm 1 m/s 754 mmHg 67%
11:00 +16°C° 0 mm 0 m/s 754 mmHg 63%
12:00 +17°C° 0 mm 0 m/s 753 mmHg 59%
13:00 +18°C° 0 mm 0 m/s 753 mmHg 56%
14:00 +17°C° 0 mm 0 m/s 753 mmHg 56%
15:00 +17°C° 0 mm 0 m/s 753 mmHg 56%
16:00 +17°C° 0 mm 0 m/s 752 mmHg 57%
17:00 +16°C° 0 mm 0 m/s 752 mmHg 62%
18:00 +15°C° 0 mm 1 m/s 752 mmHg 66%
19:00 +14°C° 0 mm 1 m/s 752 mmHg 71%
20:00 +14°C° 0 mm 1 m/s 752 mmHg 74%
21:00 +13°C° 0 mm 1 m/s 752 mmHg 76%
22:00 +13°C° 0 mm 1 m/s 752 mmHg 78%
23:00 +12°C° 0 mm 1 m/s 752 mmHg 80%
Arată mai mult